User: anonymous   Login
Location: Cul de Sac
(18.0387°N, 63.0654°W)
Time: 03:21:05
(UTC+00:00)
Language:

SEDSat Delta rocket - Orbit

View from above orbital plane
View from above orbital plane
View from above satellite
View from above satellite

Ground track
Ground track

The orbit data is extracted from the following two-line orbital elements,

1 25510U 98061C   21015.49005931  .00000283  00000-0  37568-4 0  9993
2 25510  31.4328 194.3730 0326889 166.5978 224.0629 14.37551020166209
Epoch (UTC): 15 January 2021 11:45:41
Eccentricity: 0.0326889
inclination: 31.4328°
perigee height: 533 km
apogee height: 1000 km
right ascension of ascending node: 194.3730°
argument of perigee: 166.5978°
revolutions per day: 14.37551020
mean anomaly at epoch: 224.0629°
orbit number at epoch: 16620

The dashed part of the orbit path shows where the satellite is in the earth's shadow,  

DLR